Theta_e
334 339 338 337 338 340 339 339 338 337 336 340 342 342 340 339 337 339 338 347 348 349 351 353 353 358 358 355 352 353 354 354 355 355 354 354 353 353 353 352 350 349 346
337 336 335 336 335 335 336 337 335 337 336 337 337 338 339 336 335 333 336 336 348 350 352 355 356 354 360 356 352 353 353 353 354 354 354 353 353 353 353 353 351 350 347
327 330 331 332 335 337 334 334 333 335 334 335 335 337 336 335 336 338 337 335 336 346 350 353 357 356 356 358 354 352 351 350 351 352 353 353 352 352 352 353 353 351 348
323 324 324 324 326 330 335 331 332 332 332 332 331 332 332 332 335 338 337 335 334 336 342 352 354 355 357 357 356 354 352 350 349 349 349 350 352 352 352 352 352 352 349
321 319 318 319 319 322 325 328 331 331 329 330 331 333 331 331 336 337 336 332 330 333 338 345 351 352 353 355 355 354 353 351 349 350 350 350 351 352 351 351 351 351 349
314 312 312 313 315 316 318 322 322 323 325 326 330 331 331 331 331 332 334 335 335 336 337 338 339 341 348 350 349 349 347 349 349 350 350 349 349 350 349 350 350 350 348
311 309 309 310 311 312 313 318 320 319 319 322 322 321 324 327 328 329 330 330 331 334 336 337 336 336 338 346 344 346 346 343 347 349 347 347 349 350 348 347 347 346 346
309 309 308 309 310 311 312 314 317 316 317 319 316 315 314 316 321 326 327 328 327 331 333 334 334 334 335 335 340 345 344 339 337 342 347 346 347 347 347 347 347 346 345
308 308 309 309 310 311 312 314 316 317 313 315 319 315 313 309 313 318 321 324 324 325 327 329 331 333 333 333 338 342 342 338 339 344 347 346 346 346 345 346 345 344 344
306 306 308 308 309 310 310 313 317 318 318 314 314 318 316 316 314 312 316 319 323 324 323 324 326 327 329 330 337 339 339 342 344 345 345 344 344 344 343 341 341 340 339
304 306 306 307 308 308 308 310 311 312 314 316 316 318 318 318 319 316 308 312 318 322 322 322 326 330 329 329 328 335 339 339 339 340 339 341 343 341 340 338 338 337 337
301 304 304 306 307 306 306 308 308 308 308 308 309 312 311 312 313 314 314 311 313 316 317 318 320 323 328 330 334 335 334 332 330 330 332 334 336 336 336 336 336 335 334
302 302 302 303 305 304 305 306 306 306 306 305 305 305 307 306 308 311 314 315 313 315 315 316 317 318 320 325 329 332 329 326 326 326 328 330 332 334 335 335 334 333 333
301 303 304 302 303 303 302 304 303 304 304 305 305 304 304 305 306 306 306 307 309 310 311 312 316 316 315 319 326 325 322 322 321 320 321 323 324 325 326 326 327 327 328
300 302 303 301 301 301 301 301 301 301 303 303 302 303 305 305 305 305 305 305 305 307 306 310 311 314 313 315 318 315 316 319 318 316 316 316 317 317 317 318 318 318 319
302 301 301 301 300 300 301 300 300 301 301 302 302 301 301 302 303 304 305 305 305 305 306 311 312 314 312 313 314 312 312 313 314 313 312 312 312 312 312 312 313 313 313
302 300 301 300 300 299 299 300 301 301 300 301 301 301 300 301 301 301 302 303 303 305 308 310 313 312 311 310 308 307 307 307 309 311 311 311 311 311 311 311 310 310 310
299 298 297 297 298 298 299 299 299 301 300 300 300 300 300 300 298 299 301 302 302 307 310 307 307 308 309 308 307 304 305 307 308 311 312 312 311 310 309 309 308 308 307
302 299 299 298 298 296 297 299 300 301 300 300 300 299 299 297 297 299 299 302 302 306 305 303 302 305 305 305 305 304 303 305 309 313 311 311 310 309 308 307 306 305 303
303 302 300 300 300 300 300 301 300 301 302 301 301 302 301 298 297 300 300 301 302 302 303 301 300 300 301 302 303 300 300 302 303 309 310 309 308 308 307 307 306 304 303
304 304 303 301 301 301 301 302 301 301 301 302 302 301 302 305 307 305 303 302 301 300 300 299 298 299 299 299 298 299 298 299 301 303 303 304 300 299 300 302 303 303 301
302 303 303 302 301 301 301 303 305 301 300 299 297 298 298 303 302 305 306 307 305 300 298 298 298 296 296 296 298 298 297 296 294 303 302 304 301 297 300 301 303 302 302
300 301 302 302 301 301 301 301 305 302 298 294 294 295 298 301 302 299 300 301 303 306 304 301 298 295 294 295 299 298 296 296 296 300 303 299 301 298 300 301 302 302 301
302 302 303 303 302 303 301 300 303 303 301 298 297 295 295 299 301 303 301 296 297 298 298 298 296 296 298 299 300 300 300 299 298 301 302 298 300 298 299 299 301 301 301
299 300 302 303 303 302 300 299 301 302 302 302 302 301 298 296 299 300 300 299 298 297 302 303 302 301 300 301 302 300 298 299 296 294 299 301 299 297 297 296 298 300 300
298 299 301 302 304 301 299 299 301 302 300 300 301 301 301 299 298 298 298 298 298 298 296 298 300 300 300 301 302 300 299 300 297 291 298 299 299 298 293 297 296 298 298
Wind_Speed
3 3 4 2 2 2 3 4 2 7 5 5 6 8 10 11 10 6 6 19 22 22 23 23 23 22 25 25 25 24 22 20 20 21 21 22 22 22 22 22 23 22 21
7 4 4 3 2 2 3 4 5 5 5 5 4 5 8 6 6 6 4 6 18 19 20 21 24 24 26 26 26 24 21 21 21 21 21 21 22 22 23 23 24 24 24
10 9 7 7 7 4 6 4 6 5 5 3 6 6 5 5 7 7 5 6 7 11 14 17 17 21 25 27 25 23 22 22 21 21 22 23 23 23 23 24 24 24 24
12 8 8 8 10 8 5 3 3 3 4 4 4 5 4 5 8 7 7 8 6 5 8 16 18 19 22 23 24 24 21 18 19 20 21 22 22 23 23 24 24 25 25
11 8 6 6 9 8 7 7 4 3 3 5 4 6 6 5 7 6 10 8 7 6 5 7 11 16 17 22 23 21 17 20 22 20 21 21 22 22 23 24 24 25 26
12 9 8 9 7 7 7 8 6 3 4 5 6 6 6 5 5 6 8 6 6 6 6 6 6 6 16 18 18 14 18 22 23 22 23 23 22 23 24 23 24 25 26
11 9 7 9 9 7 8 8 6 5 4 2 2 4 4 6 7 6 6 6 6 5 7 6 4 4 4 18 23 24 16 9 16 21 21 21 21 22 23 22 22 23 24
10 9 10 10 10 9 8 8 7 4 4 1 3 1 4 5 3 3 4 4 5 3 4 6 5 5 5 4 10 19 22 17 18 34 20 18 20 21 20 16 19 19 19
11 10 11 10 10 9 7 10 8 6 4 3 5 3 2 3 2 3 2 1 1 0 2 4 3 4 5 5 6 12 22 24 30 32 24 20 16 16 13 11 11 11 13
12 12 12 12 11 9 10 8 9 6 4 5 3 2 3 3 2 4 3 3 3 5 5 3 4 2 3 2 10 16 18 26 29 27 21 16 13 12 13 13 13 12 11
9 13 13 12 12 9 11 11 10 9 5 3 3 3 2 1 3 3 4 4 3 3 4 4 5 3 3 3 3 3 5 9 15 21 13 27 16 14 13 12 12 10 11
5 10 14 12 11 11 11 9 10 10 8 6 5 5 4 3 2 2 3 3 1 2 4 4 5 4 2 2 5 12 13 13 13 16 13 13 14 16 16 15 14 12 10
6 9 10 10 10 12 11 11 9 8 8 7 7 4 4 4 3 3 3 3 1 2 2 4 5 5 6 5 8 14 20 21 20 18 20 16 15 15 14 14 12 11 9
6 7 8 10 10 10 10 9 8 8 10 7 9 7 4 4 4 3 3 3 2 1 2 2 4 6 7 5 11 17 12 22 23 21 21 21 20 22 20 20 19 17 16
7 7 7 7 8 9 10 9 7 9 8 7 8 8 4 3 3 3 3 2 3 2 1 1 2 5 4 5 11 8 9 19 22 23 22 19 18 19 18 18 18 17 15
9 8 8 8 9 9 9 8 7 8 8 7 5 7 6 5 5 4 4 3 1 2 2 1 1 3 4 7 11 10 11 15 19 22 21 19 18 18 17 17 15 14 13
10 9 9 8 7 9 9 8 7 7 8 7 8 7 8 6 5 5 4 4 3 1 2 2 3 5 5 8 7 7 6 8 8 18 21 19 18 17 17 15 15 13 12
8 7 7 7 8 9 9 8 8 6 6 7 7 8 9 7 8 7 6 6 6 4 2 9 4 2 6 6 6 8 7 7 8 15 19 20 20 20 19 17 17 16 15
7 7 8 9 9 8 8 9 8 7 5 5 6 8 7 8 9 7 6 7 7 6 8 7 6 5 5 4 6 7 6 6 7 19 19 19 20 20 18 17 16 15 13
8 9 8 8 9 8 8 8 9 9 7 5 6 7 8 7 7 9 8 8 7 7 8 8 6 5 4 4 5 5 5 4 5 7 12 12 14 19 17 16 14 14 12
8 9 9 9 9 7 7 8 8 8 8 9 8 9 8 12 15 12 5 7 7 6 6 6 5 4 3 3 4 2 4 3 3 2 5 3 4 5 7 10 11 13 12
9 9 10 8 9 7 15 13 8 6 8 7 8 8 7 12 11 12 15 17 11 5 5 2 3 4 2 2 2 2 3 3 3 2 3 3 4 5 5 4 12 12 11
7 9 9 9 9 11 16 12 12 4 6 6 6 7 8 7 8 6 12 15 15 15 11 4 6 3 4 2 2 3 3 3 3 2 3 4 3 5 4 4 10 11 11
8 8 9 9 8 10 18 14 10 5 4 5 6 6 7 9 10 6 6 7 8 8 7 6 6 3 3 2 4 3 2 5 2 4 3 4 2 4 3 3 12 11 11
7 7 7 9 10 10 14 14 10 6 7 7 7 9 8 8 12 11 7 7 6 6 7 10 10 10 13 14 10 3 3 3 2 3 6 3 3 2 0 3 4 13 11
5 5 7 6 7 7 14 15 11 6 7 6 7 8 12 9 11 10 6 5 7 5 5 5 4 7 9 11 15 8 3 3 3 3 4 3 2 3 1 3 4 4 4
Wind_Direction
278 275 258 274 331 311 314 25 345 274 268 251 230 225 234 235 241 242 239 240 240 240 242 245 239 225 217 216 214 211 210 208 207 207 208 209 210 211 212 212 209 208 210
338 329 326 281 241 248 236 220 236 245 248 246 248 240 237 236 259 268 248 243 251 246 242 243 242 232 221 218 214 209 206 207 210 210 211 211 214 214 214 216 215 210 206
2 358 350 343 331 280 277 233 218 250 268 246 246 235 226 225 239 223 244 277 256 256 262 264 254 235 228 221 217 207 204 209 212 212 212 212 210 215 217 218 215 215 212
12 358 358 358 337 326 299 271 291 284 251 233 241 246 236 217 248 253 262 243 238 255 255 255 258 249 230 219 219 206 208 210 216 214 216 218 214 213 217 219 220 215 214
7 12 354 346 339 337 333 322 309 261 295 292 273 257 241 211 231 229 237 242 248 238 246 249 258 248 238 224 215 219 217 218 216 213 217 217 218 215 218 220 221 220 213
7 6 348 345 341 332 331 331 310 284 254 272 292 286 268 242 219 241 250 249 243 235 241 238 244 244 235 234 228 222 248 254 230 213 214 213 216 218 219 219 223 224 222
9 8 356 346 340 331 317 316 303 312 302 266 299 311 274 248 241 238 224 227 239 243 241 235 232 220 246 235 240 243 247 251 286 241 225 214 215 219 222 217 227 229 232
1 0 354 353 343 332 328 326 310 293 276 320 272 253 302 335 324 236 235 252 265 249 250 239 230 193 191 208 227 230 235 238 243 268 243 217 215 226 220 201 212 215 217
4 359 348 345 337 331 327 325 313 304 275 279 227 210 259 241 325 307 286 233 299 238 263 300 281 202 189 187 225 231 232 233 236 240 237 225 203 201 187 194 184 182 192
1 1 354 348 341 342 333 325 323 297 267 283 303 232 253 246 237 294 326 303 29 22 16 355 308 305 228 204 221 228 234 234 236 237 221 229 216 182 166 166 162 165 178
351 356 354 352 347 349 344 353 343 1 350 353 3 332 303 298 252 257 293 315 34 19 17 358 311 259 179 210 214 241 214 258 244 239 268 244 247 163 155 155 155 167 178
340 356 353 350 352 352 352 352 351 358 12 13 13 13 14 348 354 352 293 288 265 81 29 19 11 357 18 164 134 103 89 83 93 106 111 104 147 151 157 150 149 156 158
6 354 357 348 351 354 352 354 356 5 10 23 22 12 16 19 344 309 284 282 278 29 26 33 20 20 26 43 80 92 87 83 84 85 85 91 87 93 107 115 115 113 121
5 342 350 359 358 1 358 359 1 4 3 3 21 25 16 9 355 334 321 306 262 115 47 56 9 30 20 5 99 91 94 97 89 82 81 79 75 73 73 75 74 70 70
2 359 355 359 2 4 6 5 5 1 3 5 9 10 3 350 342 327 309 296 310 180 148 140 90 53 39 36 57 56 78 87 91 89 81 80 79 79 78 75 71 69 65
353 357 357 354 0 360 360 1 1 357 9 12 10 14 8 354 347 338 323 298 274 283 152 131 116 106 91 83 65 53 61 72 83 90 89 86 83 79 76 75 74 73 70
354 355 360 0 352 359 353 354 350 352 9 9 14 16 9 354 343 339 335 333 321 246 216 99 84 123 96 93 80 71 57 55 60 80 85 82 79 80 80 77 75 72 68
0 353 356 0 359 358 355 356 354 350 351 4 9 24 21 9 2 349 2 337 351 329 114 120 50 53 93 100 95 88 76 61 69 70 81 88 87 84 80 76 72 68 63
345 356 357 357 353 351 352 353 355 354 355 353 351 8 4 9 9 359 358 17 360 47 67 79 83 31 61 66 95 69 76 71 85 83 78 83 86 84 80 75 69 64 55
347 352 351 359 356 349 352 351 357 0 360 5 358 4 10 4 7 1 4 19 11 37 58 71 66 64 49 30 68 97 74 38 64 77 79 82 77 74 68 64 58 56 49
360 358 0 4 2 3 358 356 3 1 4 10 9 8 6 17 25 25 26 23 39 40 60 74 70 79 38 47 104 94 104 99 54 83 84 55 51 51 49 44 47 39 37
5 8 9 1 4 1 358 3 16 14 14 19 10 356 349 8 9 27 45 54 57 68 54 75 79 85 49 61 60 91 112 99 92 35 96 92 63 48 40 38 40 30 27
358 12 8 6 6 12 7 10 21 35 32 17 13 3 359 3 14 39 43 47 46 53 65 65 77 47 55 360 82 54 65 91 95 347 119 75 54 62 39 30 45 36 30
1 348 355 1 2 12 11 6 16 18 24 13 16 7 7 12 21 41 54 46 37 44 42 64 68 42 74 50 94 123 100 113 95 58 45 97 81 60 12 10 34 40 25
1 1 2 10 18 20 9 14 7 17 21 12 3 14 22 19 14 26 46 51 53 41 45 61 67 58 50 48 42 77 58 101 55 20 17 96 127 101 340 28 17 28 24
345 352 1 0 8 16 17 23 21 16 16 12 14 13 10 21 23 35 51 37 67 41 55 48 33 41 43 43 43 47 10 114 115 44 3 83 126 175 93 18 18 11 5